• MPC Preparation (Info)

  • MPEC 2017-U06 : 2017 TB5

    The following Minor Planet Electronic Circular may be linked-to from your own Web pages, but must not otherwise be redistributed electronically.

    A form allowing access to any MPEC is at the bottom of this page.


    Read MPEC 2017-U05 Read MPEC 2017-U07


    M.P.E.C. 2017-U06                                Issued 2017 Oct. 16, 00:56 UT
    
         The Minor Planet Electronic Circulars contain information on unusual
             minor planets and routine data on comets.  They are published
        on behalf of Division F of the International Astronomical Union by the
              Minor Planet Center, Smithsonian Astrophysical Observatory,
                              Cambridge, MA 02138, U.S.A.
    
                 Prepared using the Tamkin Foundation Computer Network
    
                                  MPC@CFA.HARVARD.EDU
                URL https://www.minorplanetcenter.net/    ISSN 1523-6714
    
                                       2017 TB5
    
    Observations:
         K17T05B* C2017 10 13.28943 23 32 27.13 +23 10 51.4          20.8 GUEU006G96
         K17T05B  C2017 10 13.30918 23 32 49.29 +23 08 24.5          20.3 GUEU006G96
         K17T05B  C2017 10 13.31437 23 32 55.14 +23 07 45.2          20.1 GUEU006G96
         K17T05B  C2017 10 13.32516 23 33 07.29 +23 06 24.7          20.5 GUEU006G96
         K17T05B  C2017 10 13.40021 23 34 32.31 +22 56 57.7          20.2 GUEU006G96
         K17T05B  C2017 10 13.40237 23 34 34.74 +22 56 41.4          19.9 GUEU006G96
         K17T05B  C2017 10 13.40277 23 34 35.20 +22 56 38.6          20.0 GUEU006G96
         K17T05B  C2017 10 13.40318 23 34 35.65 +22 56 35.1          20.5 GUEU006G96
         K17T05B KC2017 10 13.85863 23 43 26.83 +22 01 06.8          20.0  oEU006K88
         K17T05B KC2017 10 13.86219 23 43 30.62 +22 00 41.5          19.9  oEU006K88
         K17T05B KC2017 10 14.05958 23 47 00.47 +21 36 39.0          19.7  uEU006104
         K17T05B KC2017 10 14.06548 23 47 06.77 +21 35 54.2          20.0  uEU006104
         K17T05B KC2017 10 14.07158 23 47 13.26 +21 35 08.6          19.7  uEU006104
         K17T05B KC2017 10 14.94200 00 02 22.54 +19 51 34.3          19.5  oEU006K88
         K17T05B KC2017 10 14.94616 00 02 26.43 +19 51 04.8          19.5  oEU006K88
         K17T05B KC2017 10 14.95026 00 02 30.29 +19 50 35.8          19.5  oEU006K88
         K17T05B  C2017 10 15.37412 00 09 15.16 +19 01 48.4          20.1 GUEU006I52
         K17T05B  C2017 10 15.37510 00 09 16.03 +19 01 41.7          20.2 GUEU006I52
         K17T05B  C2017 10 15.37609 00 09 16.93 +19 01 34.2          20.0 GUEU006I52
         K17T05B  C2017 10 15.37706 00 09 17.78 +19 01 27.6          20.5 GUEU006I52
    
    Observer details:
    104 San Marcello Pistoiese.  Observers P. Bacci, M. Maestripieri.  Measurers
        P. Bacci, L. Tesi, G. Fagioli.  0.60-m reflector + CCD.
    G96 Mt. Lemmon Survey.  Observer J. A. Johnson.  Measurers E. J. Christensen,
        D. C. Fuls, A. R. Gibbs, A. D. Grauer, J. A. Johnson, R. A. Kowalski,
        S. M. Larson, G. J. Leonard, R. G. Matheny, R. L. Seaman, F. C. Shelly.
        1.5-m reflector + 10K CCD.
    I52 Steward Observatory, Mt. Lemmon Station.  Observer R. G. Matheny.
        Measurers E. J. Christensen, D. C. Fuls, A. R. Gibbs, A. D. Grauer,
        J. A. Johnson, R. A. Kowalski, S. M. Larson, G. J. Leonard, R. G. Matheny,
        R. L. Seaman, F. C. Shelly.  1.0-m reflector + CCD.
    K88 GINOP-KHK, Piszkesteto.  Observer K. Sarneczky.  0.60-m Schmidt + CCD,
        1.02-m Ritchey-Chretien + CCD.
    
    Orbital elements:
    2017 TB5                                                 Earth MOID = 0.0410 AU
    Epoch 2017 Sept. 4.0 TT = JDT 2458000.5                 MPC
    M 356.02118              (2000.0)            P               Q
    n   0.50169408     Peri.  135.25499     +0.95697150     +0.28449784
    a   1.5685922      Node   208.36259     -0.28833385     +0.91005785
    e   0.3693525      Incl.    6.91003     -0.03269774     +0.30142276
    P   1.96           H   25.8           G   0.15           U   7
    Residuals in seconds of arc
    171013 G96  0.2+  0.1+    171013 G96  0.2-  0.2-    171014 K88  0.1+  0.0
    171013 G96  0.2-  0.2+    171013 K88  0.2-  0.1+    171014 K88  0.0   0.3+
    171013 G96  0.1-  0.3-    171013 K88  0.1-  0.5+    171015 I52  0.0   0.1-
    171013 G96  0.0   0.1-    171014 104  0.2-  0.4+    171015 I52  0.2-  0.2+
    171013 G96  0.4+  0.2-    171014 104  0.1+  0.3-    171015 I52  0.0   0.3-
    171013 G96  0.0   0.1-    171014 104  0.0   0.2-    171015 I52  0.3-  0.0
    171013 G96  0.0   0.2+    171014 K88  0.6+  0.2-
    
    Ephemeris:
    2017 TB5                 a,e,i = 1.57, 0.37, 7                   q = 0.9892
    Date    TT    R. A. (2000) Decl.     Delta      r     Elong.  Phase     V
    2017 09 16    16 51 20.8 +21 32 20   0.1109  0.9902    78.9    94.8    24.4
    ...
    2017 10 01    18 50 01.3 +30 42 57   0.05835 1.0092    96.2    80.5    22.5
    ...
    2017 10 09    21 51 02.1 +30 42 05   0.04543 1.0286   129.9    48.2    21.0
    ...
    2017 10 15    00 03 21.8 +19 46 12   0.05337 1.0470   158.3    20.6    20.6
    2017 10 16    00 18 48.6 +17 51 52   0.05605 1.0503   161.8    17.2    20.6
    2017 10 17    00 32 32.2 +16 04 12   0.05901 1.0538   165.0    14.2    20.6
    ...
    2017 10 23    01 28 19.3 +07 58 44   0.08131 1.0759   173.7     5.8    21.0
    ...
    2017 10 31    02 04 33.4 +02 29 42   0.1185  1.1090   167.8    10.9    22.1
    ...
    2017 11 15    02 33 25.6 -00 41 13   0.2031  1.1796   157.7    18.6    23.7
    
    A. U. Tomatic                (C) Copyright 2017 MPC           M.P.E.C. 2017-U06
    

    Read MPEC 2017-U05 Read MPEC 2017-U07


    MPEC number:

    Enter an MPEC number in one of the following forms:

    • 1997-B01 (the full form)
    • J97B01 (the packed version of the full form)
    • B01 (the abbreviated form)